FW3997 Weather Reports


time (UTC)temp
C
wind
direction
speed
KPH
gust
KPH
rain 1hr
cm
rain 24hr
cm
rain mn
cm
humidity
%
barometer
mb
20260906232516 15 71 8.0 12.9 0.00 0.08 0.08 81 1017.8
20260906232016 15 71 8.0 14.5 0.00 0.08 0.08 81 1017.9
20260906231527 15 71 8.0 14.5 0.00 0.08 0.08 81 1018.1
20260906231022 15 71 9.7 14.5 0.00 0.08 0.08 81 1018.3
20260906230520 15 71 9.7 14.5 0.00 0.08 0.08 80 1018.4
20260906230031 15 71 9.7 16.1 0.00 0.08 0.08 81 1018.4
20260906225518 15 71 9.7 16.1 0.00 0.08 0.08 82 1018.4
20260906225017 15 71 9.7 17.7 0.00 0.08 0.08 82 1018.3
20260906224534 15 71 9.7 17.7 0.00 0.08 0.08 81 1018.2
20260906224010 15 71 11.3 17.7 0.00 0.08 0.08 82 1018.2
20260906223512 15 71 8.0 16.1 0.00 0.08 0.08 82 1018.0
20260906223024 15 71 11.3 16.1 0.00 0.08 0.08 82 1018.0
20260906222512 15 71 12.9 17.7 0.00 0.08 0.08 81 1018.1
20260906222014 15 71 11.3 17.7 0.00 0.08 0.08 81 1017.9
20260906221532 15 71 9.7 17.7 0.00 0.08 0.08 80 1017.9
20260906221014 15 71 11.3 16.1 0.00 0.08 0.08 81 1017.9
20260906220518 15 71 8.0 14.5 0.00 0.08 0.08 80 1017.9
20260906220031 15 71 6.4 9.7 0.00 0.08 0.08 81 1017.9
20260906215516 15 71 4.8 9.7 0.00 0.08 0.08 80 1018.1
20260906215018 15 71 6.4 14.5 0.00 0.08 0.08 81 1018.0
20260906214512 15 71 6.4 14.5 0.00 0.08 0.08 81 1018.1
20260906214009 15 71 6.4 12.9 0.00 0.08 0.08 82 1018.1
20260906213509 15 71 6.4 16.1 0.00 0.08 0.08 81 1018.0
20260906213020 15 71 6.4 16.1 0.00 0.08 0.08 82 1018.2
20260906212512 15 71 4.8 16.1 0.00 0.08 0.08 81 1018.3
20260906212012 15 71 3.2 9.7 0.00 0.08 0.08 81 1018.3
20260906211527 15 71 6.4 9.7 0.00 0.08 0.08 81 1018.3
20260906211016 15 71 3.2 8.0 0.00 0.08 0.08 79 1018.4
20260906210503 15 71 4.8 8.0 0.00 0.08 0.08 79 1018.5
20260906210007 15 71 4.8 8.0 0.00 0.08 0.08 81 1018.4
20260906205506 15 71 4.8 8.0 0.00 0.08 0.08 80 1018.4
20260906205007 15 71 4.8 6.4 0.00 0.08 0.08 79 1018.3
20260906204510 15 71 3.2 6.4 0.00 0.08 0.08 79 1018.3
20260906204005 15 71 4.8 6.4 0.00 0.08 0.08 79 1018.1
20260906203519 15 71 4.8 6.4 0.00 0.08 0.08 79 1018.2
20260906203014 15 71 4.8 6.4 0.00 0.08 0.08 78 1018.2
20260906202511 15 71 3.2 8.0 0.00 0.08 0.08 77 1018.3
20260906202009 15 71 4.8 8.0 0.00 0.08 0.08 77 1018.3
20260906201523 16 71 3.2 6.4 0.00 0.08 0.08 79 1018.4
20260906201011 16 71 3.2 8.0 0.00 0.08 0.08 79 1018.5
20260906200512 16 71 4.8 8.0 0.00 0.08 0.08 76 1018.5
20260906200024 16 71 0.0 0.0 0.00 0.08 0.08 75 1018.5
20260906195514 16 71 0.0 0.0 0.00 0.08 0.08 77 1018.5
20260906195003 16 71 0.0 0.0 0.00 0.08 0.08 77 1018.6
20260906194508 16 71 0.0 0.0 0.00 0.08 0.08 77 1018.5
20260906194007 16 71 0.0 0.0 0.00 0.08 0.08 78 1018.3
20260906193508 16 71 0.0 0.0 0.00 0.08 0.08 79 1018.2
20260906193012 16 71 0.0 0.0 0.03 0.08 0.08 81 1018.4
20260906192509 15 71 0.0 0.0 0.03 0.08 0.08 82 1018.6
20260906192007 15 71 0.0 0.0 0.03 0.08 0.08 83 1018.6
20260906191516 15 71 0.0 0.0 0.03 0.08 0.08 83 1018.6
20260906191009 15 71 0.0 0.0 0.03 0.08 0.08 84 1018.6
20260906190515 15 71 0.0 0.0 0.03 0.08 0.08 86 1018.5
20260906190034 15 71 0.0 0.0 0.03 0.08 0.08 88 1018.6
20260906185512 14 71 0.0 0.0 0.03 0.08 0.08 90 1018.6
20260906185015 14 71 0.0 0.0 0.03 0.08 0.08 92 1018.7
20260906184528 14 71 0.0 0.0 0.03 0.08 0.08 93 1018.7
20260906184015 14 71 0.0 0.0 0.03 0.08 0.08 95 1018.8
20260906183516 14 71 0.0 6.4 0.03 0.08 0.08 96 1018.7
20260906183011 13 71 0.0 6.4 0.00 0.05 0.05 97 1019.0
20260906182508 13 71 0.0 0.0 0.00 0.05 0.05 98 1019.1
20260906182009 13 71 0.0 4.8 0.00 0.05 0.05 98 1018.9
20260906181518 13 71 0.0 4.8 0.00 0.05 0.05 99 1019.1
20260906181007 13 71 1.6 4.8 0.00 0.08 0.05 99 1019.1
20260906180509 12 71 1.6 6.4 0.00 0.08 0.05 99 1019.1
20260906180021 12 71 3.2 6.4 0.00 0.08 0.05 99 1018.9
20260906175510 12 71 4.8 8.0 0.00 0.08 0.05 99 1018.8
20260906175012 12 71 3.2 8.0 0.00 0.08 0.05 99 1018.7
20260906174526 12 71 4.8 8.0 0.00 0.08 0.05 99 1019.0
20260906174015 12 71 1.6 4.8 0.00 0.08 0.05 99 1019.3
20260906173513 12 71 3.2 6.4 0.00 0.08 0.05 99 1019.3
20260906173032 11 71 3.2 6.4 0.03 0.08 0.05 99 1019.4
20260906172513 11 71 1.6 6.4 0.03 0.08 0.05 99 1019.5
20260906172018 11 71 0.0 4.8 0.03 0.08 0.05 99 1019.6
20260906171508 11 71 0.0 4.8 0.03 0.08 0.05 99 1019.5
20260906171007 11 71 0.0 6.4 0.03 0.08 0.05 99 1019.6
20260906170508 11 71 1.6 8.0 0.03 0.08 0.05 99 1019.7
20260906170025 11 71 4.8 9.7 0.03 0.08 0.05 99 1019.6
20260906165510 11 71 6.4 9.7 0.03 0.08 0.05 99 1019.6
20260906165012 11 71 6.4 9.7 0.03 0.08 0.05 99 1019.6
20260906164520 11 71 4.8 8.0 0.03 0.08 0.05 99 1019.8
20260906164014 11 71 4.8 8.0 0.03 0.08 0.05 98 1020.0
20260906163511 11 71 4.8 12.9 0.03 0.08 0.05 98 1020.1
20260906163024 11 71 6.4 12.9 0.00 0.05 0.03 99 1020.1
20260906162514 10 71 8.0 12.9 0.00 0.05 0.03 98 1020.1
20260906162018 10 71 8.0 12.9 0.00 0.05 0.03 98 1020.2
20260906161530 10 77 6.4 11.3 0.00 0.05 0.03 98 1020.1
20260906161018 10 77 6.4 11.3 0.00 0.05 0.03 98 1020.1
20260906160515 11 77 6.4 11.3 0.00 0.05 0.03 98 1020.2
20260906160032 11 77 4.8 8.0 0.00 0.05 0.03 98 1020.1
20260906155509 11 77 4.8 8.0 0.00 0.05 0.03 98 1020.1
20260906155008 11 77 4.8 8.0 0.00 0.05 0.03 98 1020.1
20260906154516 11 77 3.2 8.0 0.00 0.05 0.03 98 1019.9
20260906154012 11 77 4.8 11.3 0.00 0.08 0.03 98 1019.9
20260906153509 11 77 8.0 12.9 0.00 0.08 0.03 99 1020.1
20260906153029 11 77 8.0 12.9 0.00 0.08 0.03 99 1020.3
20260906152512 11 77 4.8 16.1 0.00 0.08 0.03 98 1020.4
20260906152017 11 77 9.7 16.1 0.00 0.08 0.03 99 1020.4
20260906151527 11 77 9.7 19.3 0.00 0.10 0.03 98 1020.3
20260906151013 11 77 14.5 19.3 0.00 0.10 0.03 98 1019.9
20260906150517 11 67 12.9 19.3 0.00 0.10 0.03 99 1020.1
20260906150039 11 38 12.9 16.1 0.00 0.10 0.03 99 1020.2
20260906145516 11 22 9.7 17.7 0.00 0.13 0.03 99 1020.3
20260906145020 11 22 11.3 17.7 0.00 0.15 0.03 99 1020.1
20260906144507 11 355 9.7 16.1 0.00 0.15 0.03 98 1020.3
20260906144003 11 343 11.3 14.5 0.00 0.20 0.03 98 1020.4
20260906143506 11 343 6.4 12.9 0.00 0.25 0.03 98 1020.4
20260906143005 11 343 8.0 9.7 0.00 0.30 0.03 99 1020.3
20260906142504 11 343 4.8 8.0 0.00 0.30 0.03 99 1020.3
20260906142006 11 343 4.8 8.0 0.00 0.36 0.03 99 1020.5
20260906141504 11 343 0.0 3.2 0.00 0.36 0.03 99 1020.4
20260906141004 11 343 0.0 0.0 0.00 0.41 0.03 99 1020.4
20260906140503 11 343 0.0 0.0 0.00 0.46 0.03 99 1020.6
20260906140005 11 343 0.0 0.0 0.00 0.48 0.03 98 1020.5
20260906135503 11 343 0.0 0.0 0.00 0.51 0.03 98 1020.5
20260906135002 10 343 0.0 0.0 0.00 0.51 0.03 98 1020.5
20260906134514 10 343 0.0 3.2 0.00 0.51 0.03 98 1020.3
20260906134006 10 343 0.0 6.4 0.00 0.51 0.03 98 1020.3
20260906133503 10 343 1.6 8.0 0.00 0.51 0.03 98 1020.4
20260906133008 10 343 4.8 9.7 0.00 0.51 0.03 98 1020.4
20260906132504 10 343 6.4 9.7 0.00 0.51 0.03 98 1020.4
20260906132008 10 343 6.4 8.0 0.00 0.51 0.03 98 1020.2
20260906131508 10 343 4.8 9.7 0.00 0.51 0.03 98 1020.1
20260906131007 10 343 6.4 9.7 0.00 0.51 0.03 98 1020.0
20260906130504 10 343 4.8 8.0 0.00 0.51 0.03 98 1019.9
20260906130004 10 343 4.8 8.0 0.00 0.51 0.03 98 1019.7
20260906125504 10 343 4.8 9.7 0.00 0.51 0.03 98 1019.7
20260906125005 10 343 4.8 9.7 0.00 0.51 0.03 98 1019.9
20260906124506 10 343 4.8 8.0 0.00 0.51 0.03 98 1020.2
20260906124006 10 343 4.8 8.0 0.00 0.51 0.03 98 1020.4
20260906123506 10 343 4.8 8.0 0.00 0.51 0.03 98 1020.6
20260906123010 10 343 6.4 8.0 0.00 0.51 0.03 98 1020.6
20260906122506 10 343 4.8 9.7 0.00 0.51 0.03 98 1020.8
20260906122004 10 343 6.4 9.7 0.00 0.51 0.03 98 1020.6
20260906121508 10 343 6.4 9.7 0.00 0.51 0.03 98 1020.4
20260906121008 10 343 4.8 9.7 0.00 0.51 0.03 98 1020.2
20260906120507 10 343 6.4 9.7 0.00 0.51 0.03 98 1020.0
20260906120007 10 343 6.4 9.7 0.00 0.51 0.03 98 1020.2
20260906115508 10 343 3.2 6.4 0.00 0.51 0.03 98 1020.6
20260906115006 10 343 0.0 4.8 0.00 0.51 0.03 98 1021.0
20260906114508 10 343 1.6 6.4 0.00 0.51 0.03 98 1021.1
20260906114005 10 343 3.2 6.4 0.00 0.51 0.03 98 1021.0
20260906113506 10 343 3.2 6.4 0.00 0.51 0.03 98 1021.0
20260906113010 10 343 1.6 4.8 0.00 0.51 0.03 98 1021.0
20260906112508 10 343 3.2 6.4 0.00 0.51 0.03 98 1020.9
20260906112008 10 343 4.8 6.4 0.00 0.51 0.03 98 1021.0
20260906111508 10 343 3.2 6.4 0.00 0.51 0.03 98 1021.0
20260906111008 10 343 3.2 6.4 0.00 0.51 0.03 98 1021.0
20260906110508 10 343 1.6 6.4 0.00 0.51 0.03 98 1021.0
20260906110012 10 343 4.8 8.0 0.00 0.51 0.03 98 1021.0
20260906105508 10 343 4.8 8.0 0.00 0.51 0.03 98 1021.1
20260906105007 10 343 6.4 8.0 0.00 0.51 0.03 98 1021.1
20260906104508 10 343 4.8 8.0 0.00 0.51 0.03 98 1021.4
20260906104008 10 343 3.2 6.4 0.00 0.51 0.03 98 1021.6
20260906103508 10 343 1.6 6.4 0.00 0.51 0.03 98 1021.7
20260906103012 10 343 1.6 4.8 0.00 0.51 0.03 98 1021.8
20260906102507 10 343 0.0 0.0 0.00 0.51 0.03 98 1022.0
20260906102006 10 343 0.0 1.6 0.00 0.51 0.03 98 1022.0
20260906101512 10 343 0.0 1.6 0.00 0.51 0.03 98 1021.9
20260906101007 10 343 0.0 3.2 0.00 0.51 0.03 98 1022.0
20260906100511 10 343 0.0 6.4 0.00 0.51 0.03 98 1021.9
20260906100010 10 343 1.6 8.0 0.00 0.51 0.03 98 1021.7
20260906095509 10 343 3.2 9.7 0.00 0.51 0.03 98 1021.7
20260906095010 10 343 4.8 9.7 0.00 0.51 0.03 98 1021.5
20260906094514 10 343 4.8 12.9 0.00 0.51 0.03 98 1021.6
20260906094009 10 343 6.4 14.5 0.00 0.51 0.03 98 1021.6
20260906093508 10 343 9.7 14.5 0.00 0.51 0.03 98 1021.4
20260906093011 10 343 6.4 14.5 0.00 0.51 0.03 98 1021.6
20260906092511 9 343 9.7 12.9 0.00 0.51 0.03 98 1021.7
20260906092013 9 343 9.7 16.1 0.00 0.51 0.03 98 1021.7
20260906091516 9 343 11.3 16.1 0.00 0.51 0.03 98 1021.8
20260906091006 9 343 8.0 16.1 0.00 0.51 0.03 98 1021.9
20260906090508 9 343 8.0 16.1 0.00 0.51 0.03 98 1021.9
20260906090011 9 343 9.7 16.1 0.00 0.51 0.03 98 1021.8
20260906085509 9 343 9.7 14.5 0.00 0.51 0.03 98 1021.8
20260906085010 9 343 9.7 14.5 0.00 0.51 0.03 98 1022.2
20260906084517 9 343 6.4 16.1 0.00 0.51 0.03 98 1022.5
20260906084012 9 343 11.3 16.1 0.00 0.51 0.03 98 1022.4
20260906083511 9 343 8.0 16.1 0.00 0.51 0.03 98 1022.4
20260906083017 9 343 11.3 16.1 0.00 0.51 0.03 98 1022.4
20260906082512 9 343 9.7 16.1 0.00 0.51 0.03 98 1022.4
20260906082013 9 343 9.7 16.1 0.00 0.51 0.03 98 1022.4
20260906081518 9 343 9.7 16.1 0.00 0.51 0.03 98 1022.5
20260906081011 9 343 9.7 14.5 0.00 0.51 0.03 98 1022.5
20260906080514 9 343 6.4 9.7 0.00 0.51 0.03 98 1022.5
20260906080018 9 343 4.8 9.7 0.00 0.51 0.03 98 1022.6
20260906075512 9 343 4.8 12.9 0.00 0.51 0.03 98 1022.5
20260906075008 9 343 8.0 14.5 0.00 0.51 0.03 98 1022.6
20260906074510 9 343 9.7 16.1 0.00 0.51 0.03 98 1022.7
20260906074014 9 343 11.3 16.1 0.00 0.51 0.03 98 1022.7
20260906073513 9 343 8.0 14.5 0.00 0.51 0.03 98 1022.7
20260906073022 9 343 8.0 16.1 0.00 0.51 0.03 98 1022.8
20260906072511 9 343 9.7 16.1 0.00 0.51 0.03 98 1022.8
20260906072011 9 341 9.7 17.7 0.00 0.51 0.03 98 1022.8
20260906071522 9 338 9.7 17.7 0.00 0.51 0.03 98 1023.0
20260906071013 9 337 11.3 16.1 0.00 0.51 0.03 98 1023.1
20260906070509 9 329 9.7 16.1 0.03 0.51 0.03 98 1023.2
20260906070023 9 327 8.0 14.5 0.03 0.51 0.03 97 1023.2
20260906065514 9 327 9.7 14.5 0.03 0.51 0.03 97 1023.2
20260906065014 9 327 8.0 12.9 0.03 0.51 0.03 97 1023.3
20260906064520 9 327 8.0 12.9 0.03 0.51 0.03 97 1023.4
20260906064014 9 327 8.0 12.9 0.03 0.51 0.03 97 1023.2
20260906063506 9 327 8.0 14.5 0.03 0.51 0.03 97 1023.3
20260906063013 9 327 8.0 14.5 0.03 0.51 0.03 97 1023.3
20260906062509 9 327 9.7 14.5 0.03 0.51 0.03 97 1023.3
20260906062012 9 327 6.4 12.9 0.03 0.51 0.03 97 1023.3
20260906061520 9 327 8.0 12.9 0.03 0.51 0.03 97 1023.3
20260906061012 9 327 6.4 9.7 0.03 0.51 0.03 97 1023.3
20260906060514 9 327 6.4 9.7 0.00 0.48 0.00 97 1023.4
20260906060025 9 327 4.8 8.0 0.00 0.48 0.00 97 1023.4
20260906055513 9 327 3.2 8.0 0.00 0.48 0.48 97 1023.6
20260906055011 9 327 3.2 9.7 0.00 0.48 0.48 97 1023.8
20260906054524 9 327 4.8 9.7 0.00 0.48 0.48 97 1023.8
20260906054012 9 327 6.4 12.9 0.00 0.48 0.48 97 1023.6
20260906053512 9 327 6.4 16.1 0.00 0.48 0.48 97 1023.5
20260906053024 9 327 11.3 16.1 0.00 0.48 0.48 97 1023.3
20260906052518 9 327 11.3 16.1 0.00 0.48 0.48 97 1023.3
20260906052013 9 327 11.3 17.7 0.00 0.48 0.48 97 1023.3
20260906051518 9 327 12.9 17.7 0.00 0.48 0.48 97 1023.2
20260906051015 9 327 14.5 17.7 0.00 0.48 0.48 97 1023.3
20260906050512 9 327 11.3 17.7 0.00 0.48 0.48 97 1023.4
20260906050026 9 327 11.3 17.7 0.00 0.48 0.48 97 1023.3
20260906045514 9 327 11.3 16.1 0.00 0.48 0.48 97 1023.3
20260906045015 9 327 11.3 14.5 0.00 0.48 0.48 97 1023.3
20260906044504 9 327 11.3 14.5 0.00 0.48 0.48 97 1023.3
20260906044006 8 338 8.0 12.9 0.00 0.48 0.48 97 1023.4
20260906043504 8 338 8.0 12.9 0.00 0.48 0.48 96 1023.1
20260906043004 8 338 8.0 12.9 0.00 0.48 0.48 96 1022.9
20260906042505 9 338 8.0 12.9 0.00 0.48 0.48 96 1022.8
20260906042009 9 338 8.0 12.9 0.00 0.48 0.48 96 1023.1
20260906041521 9 338 8.0 17.7 0.00 0.48 0.48 96 1023.1
20260906041011 9 338 8.0 17.7 0.00 0.48 0.48 96 1022.5
20260906040513 9 333 11.3 17.7 0.00 0.48 0.48 96 1022.1
20260906040020 8 317 11.3 17.7 0.00 0.48 0.48 96 1022.4
20260906035511 9 315 12.9 17.7 0.00 0.48 0.48 96 1022.5
20260906035014 9 315 12.9 16.1 0.00 0.48 0.48 96 1022.7
20260906034529 9 315 12.9 16.1 0.00 0.48 0.48 96 1022.8
20260906034004 9 315 9.7 14.5 0.00 0.48 0.48 96 1022.8
20260906033503 9 314 9.7 16.1 0.00 0.48 0.48 96 1022.9
20260906033005 9 313 9.7 16.1 0.00 0.48 0.48 96 1022.8
20260906032504 9 299 11.3 16.1 0.00 0.48 0.48 96 1022.8
20260906032004 9 300 11.3 16.1 0.00 0.48 0.48 96 1022.8
20260906031508 9 301 11.3 16.1 0.00 0.48 0.48 96 1022.8
20260906031008 9 301 11.3 16.1 0.00 0.48 0.48 95 1022.9
20260906030508 9 301 8.0 14.5 0.00 0.48 0.48 95 1022.9
20260906030013 9 301 11.3 16.1 0.00 0.48 0.48 95 1022.8
20260906025511 10 301 11.3 16.1 0.00 0.48 0.48 95 1022.7
20260906025146 10 301 12.9 17.7 0.00 0.48 0.48 95 1022.4
20260906024522 10 300 11.3 17.7 0.00 0.48 0.48 95 1022.3
20260906024013 10 257 11.3 14.5 0.00 0.48 0.48 95 1022.3
20260906023516 10 257 9.7 12.9 0.00 0.48 0.48 95 1022.4
20260906023024 10 257 9.7 11.3 0.00 0.48 0.48 95 1022.4
20260906022515 10 289 4.8 11.3 0.00 0.48 0.48 95 1022.5
20260906022004 9 289 4.8 6.4 0.00 0.48 0.48 95 1022.4
20260906021504 9 289 4.8 8.0 0.00 0.48 0.48 94 1022.5
20260906021004 10 289 4.8 8.0 0.00 0.48 0.48 94 1022.4
20260906020508 10 289 6.4 12.9 0.00 0.48 0.48 94 1022.2
20260906020010 10 289 6.4 12.9 0.00 0.48 0.48 94 1022.3
20260906015509 10 289 8.0 14.5 0.00 0.48 0.48 93 1022.2
20260906015009 10 289 9.7 14.5 0.00 0.48 0.48 93 1022.1
20260906014521 10 289 9.7 17.7 0.00 0.48 0.48 93 1022.0
20260906014010 11 289 11.3 19.3 0.00 0.48 0.48 93 1021.9
20260906013511 11 289 14.5 20.9 0.00 0.48 0.48 93 1021.8
20260906013027 11 289 12.9 20.9 0.00 0.48 0.48 92 1021.9
20260906012513 11 289 14.5 20.9 0.00 0.48 0.48 92 1021.9
20260906012011 11 289 12.9 17.7 0.00 0.48 0.48 92 1021.9
20260906011528 11 289 12.9 19.3 0.00 0.48 0.48 92 1022.0
20260906011015 11 289 14.5 19.3 0.00 0.48 0.48 92 1021.8
20260906010504 11 289 11.3 17.7 0.00 0.48 0.48 91 1021.8
20260906010006 11 289 11.3 19.3 0.00 0.48 0.48 91 1021.8
20260906005504 12 289 14.5 20.9 0.00 0.48 0.48 90 1021.8
20260906005008 12 289 16.1 20.9 0.00 0.48 0.48 90 1021.8
20260906004517 12 281 12.9 17.7 0.00 0.48 0.48 90 1021.9
20260906004012 12 281 14.5 17.7 0.00 0.48 0.48 91 1022.0
20260906003508 12 276 11.3 17.7 0.00 0.48 0.48 91 1022.0
20260906003016 12 276 12.9 19.3 0.00 0.48 0.48 90 1022.0
20260906002509 12 276 11.3 19.3 0.00 0.48 0.48 90 1022.0
20260906002016 12 276 12.9 17.7 0.00 0.48 0.48 91 1022.0
20260906001523 12 275 12.9 17.7 0.00 0.48 0.48 91 1022.0
20260906001015 12 274 11.3 19.3 0.00 0.48 0.48 91 1022.0
20260906000514 12 273 12.9 19.3 0.00 0.48 0.48 92 1022.0
20260906000029 12 275 14.5 17.7 0.00 0.48 0.48 91 1022.0
20260905235514 12 281 11.3 16.1 0.00 0.48 0.48 92 1022.0
20260905235018 12 281 11.3 17.7 0.00 0.48 0.48 92 1022.0
20260905234508 12 281 9.7 17.7 0.00 0.48 0.48 92 1022.0
20260905234006 12 281 12.9 16.1 0.00 0.48 0.48 91 1021.9
20260905233506 12 289 12.9 16.1 0.00 0.48 0.48 91 1021.9
20260905233016 12 295 11.3 16.1 0.00 0.48 0.48 90 1021.8